asset_id,template_id,mint,schema,rarity,name
1099604276287,289324,5812,packs,,monKeypack by cryptomonKeys (1st edition)
1099604276288,289324,5813,packs,,monKeypack by cryptomonKeys (1st edition)
1099604276289,289324,5814,packs,,monKeypack by cryptomonKeys (1st edition)
1099604276290,289324,5815,packs,,monKeypack by cryptomonKeys (1st edition)
1099604276291,289324,5816,packs,,monKeypack by cryptomonKeys (1st edition)
1099604276292,289324,5817,packs,,monKeypack by cryptomonKeys (1st edition)
1099604276293,289324,5818,packs,,monKeypack by cryptomonKeys (1st edition)
1099604276294,289324,5819,packs,,monKeypack by cryptomonKeys (1st edition)
1099604276295,289324,5820,packs,,monKeypack by cryptomonKeys (1st edition)
1099604276296,289324,5821,packs,,monKeypack by cryptomonKeys (1st edition)
1099604276297,289324,5822,packs,,monKeypack by cryptomonKeys (1st edition)
1099604276298,289324,5823,packs,,monKeypack by cryptomonKeys (1st edition)
1099604276299,289324,5824,packs,,monKeypack by cryptomonKeys (1st edition)
1099604276300,289324,5825,packs,,monKeypack by cryptomonKeys (1st edition)
1099604276301,289324,5826,packs,,monKeypack by cryptomonKeys (1st edition)
1099604276302,289324,5827,packs,,monKeypack by cryptomonKeys (1st edition)
1099604276303,289324,5828,packs,,monKeypack by cryptomonKeys (1st edition)
1099604277237,336643,3907,crptomonkeys,Common,Count Bancula
1099604277238,336643,3908,crptomonkeys,Common,Count Bancula
1099604277240,336643,3910,crptomonkeys,Common,Count Bancula
1099604277243,336643,3913,crptomonkeys,Common,Count Bancula
1099604277244,336643,3914,crptomonkeys,Common,Count Bancula
1099604277245,336643,3915,crptomonkeys,Common,Count Bancula
1099604277246,336643,3916,crptomonkeys,Common,Count Bancula
1099604277247,336643,3917,crptomonkeys,Common,Count Bancula
1099604277248,336643,3918,crptomonkeys,Common,Count Bancula
1099604277249,336643,3919,crptomonkeys,Common,Count Bancula
1099604277250,336643,3920,crptomonkeys,Common,Count Bancula
1099604277251,336643,3921,crptomonkeys,Common,Count Bancula
1099604277252,336643,3922,crptomonkeys,Common,Count Bancula
1099604277253,336643,3923,crptomonkeys,Common,Count Bancula
1099604277254,336643,3924,crptomonkeys,Common,Count Bancula
1099604277255,336643,3925,crptomonkeys,Common,Count Bancula
1099604277256,336643,3926,crptomonkeys,Common,Count Bancula
1099604277257,336643,3927,crptomonkeys,Common,Count Bancula
1099604277258,336643,3928,crptomonkeys,Common,Count Bancula
1099604277260,336643,3930,crptomonkeys,Common,Count Bancula
1099604277261,336643,3931,crptomonkeys,Common,Count Bancula
1099604277262,336643,3932,crptomonkeys,Common,Count Bancula
1099604277263,336643,3933,crptomonkeys,Common,Count Bancula
1099604277264,336643,3934,crptomonkeys,Common,Count Bancula
1099604277265,336643,3935,crptomonkeys,Common,Count Bancula
1099604277266,336643,3936,crptomonkeys,Common,Count Bancula
1099604277267,336643,3937,crptomonkeys,Common,Count Bancula
1099604277270,336643,3940,crptomonkeys,Common,Count Bancula
1099604277271,336643,3941,crptomonkeys,Common,Count Bancula
1099604277272,336643,3942,crptomonkeys,Common,Count Bancula
1099604277273,336643,3943,crptomonkeys,Common,Count Bancula
1099604277274,336643,3944,crptomonkeys,Common,Count Bancula
1099604277275,336643,3945,crptomonkeys,Common,Count Bancula
1099604277276,336643,3946,crptomonkeys,Common,Count Bancula
1099604277277,336643,3947,crptomonkeys,Common,Count Bancula
1099604277278,336643,3948,crptomonkeys,Common,Count Bancula
1099604277279,336643,3949,crptomonkeys,Common,Count Bancula
1099604277280,336643,3950,crptomonkeys,Common,Count Bancula
1099604277128,351580,350,crptomonkeys,Rare,The Purple Wizard
1099604619073,410375,1667,crptomonkeys,Common,New Year's monKey (2022)
1099638467170,436517,346,crptomonkeys,Rare,monKey-Chan
1099638467171,436517,347,crptomonkeys,Rare,monKey-Chan
1099638467172,436517,348,crptomonkeys,Rare,monKey-Chan
1099638467173,436517,349,crptomonkeys,Rare,monKey-Chan
1099638467174,436517,350,crptomonkeys,Rare,monKey-Chan
1099831246143,602935,857,monkeystacks,Uncommon,Resting Point
1099841374371,640705,835,crptomonkeys,Uncommon,Banta’s Workshop
